| time (UTC) | temp C | wind direction | speed KPH | gust KPH | rain 1hr cm | rain 24hr cm | rain mn cm | humidity % | barometer mb |
| 20260506104022 | 12 | 155 | 0.0 | 0.0 | 0.00 | 0.00 | 0.00 | 75 | 1017.6 |
| 20260506103519 | 12 | 155 | 0.0 | 0.0 | 0.00 | 0.00 | 0.00 | 75 | 1017.2 |
| 20260506103015 | 12 | 155 | 0.0 | 0.0 | 0.00 | 0.00 | 0.00 | 74 | 1016.8 |
| 20260506102514 | 13 | 155 | 0.0 | 0.0 | 0.00 | 0.00 | 0.00 | 74 | 1017.2 |
| 20260506102011 | 13 | 155 | 0.0 | 0.0 | 0.00 | 0.00 | 0.00 | 73 | 1017.2 |
| 20260506101507 | 13 | 156 | 0.0 | 0.0 | 0.00 | 0.00 | 0.00 | 72 | 1016.8 |
| 20260506101004 | 13 | 156 | 0.0 | 0.0 | 0.00 | 0.00 | 0.00 | 71 | 1016.8 |
| 20260506100503 | 13 | 156 | 0.0 | 0.0 | 0.00 | 0.00 | 0.00 | 72 | 1017.2 |
| 20260506100000 | 13 | 155 | 0.0 | 0.0 | 0.00 | 0.00 | 0.00 | 73 | 1016.8 |
| 20260506095459 | 13 | 155 | 0.0 | 0.0 | 0.00 | 0.00 | 0.00 | 72 | 1017.2 |
| 20260506094954 | 13 | 155 | 0.0 | 0.0 | 0.00 | 0.00 | 0.00 | 72 | 1016.8 |
| 20260506094453 | 13 | 155 | 0.0 | 0.0 | 0.00 | 0.00 | 0.00 | 71 | 1016.8 |
| 20260506093950 | 13 | 155 | 0.0 | 0.0 | 0.00 | 0.00 | 0.00 | 70 | 1016.8 |
| 20260506093448 | 13 | 155 | 0.0 | 0.0 | 0.00 | 0.00 | 0.00 | 69 | 1016.8 |
| 20260506092946 | 13 | 156 | 0.0 | 0.0 | 0.00 | 0.00 | 0.00 | 68 | 1016.8 |
| 20260506092444 | 14 | 156 | 0.0 | 0.0 | 0.00 | 0.00 | 0.00 | 69 | 1017.2 |
| 20260506091940 | 14 | 156 | 0.0 | 0.0 | 0.00 | 0.00 | 0.00 | 68 | 1017.2 |
| 20260506091438 | 15 | 156 | 0.0 | 0.0 | 0.00 | 0.00 | 0.00 | 66 | 1016.8 |
| 20260506090935 | 15 | 156 | 0.0 | 0.0 | 0.00 | 0.00 | 0.00 | 66 | 1016.8 |
| 20260506090433 | 15 | 156 | 0.0 | 0.0 | 0.00 | 0.00 | 0.00 | 66 | 1016.8 |
| 20260506085929 | 15 | 161 | 0.0 | 0.0 | 0.00 | 0.00 | 0.00 | 65 | 1016.8 |
| 20260506085426 | 15 | 156 | 0.0 | 0.0 | 0.00 | 0.00 | 0.00 | 66 | 1017.2 |
| 20260506084922 | 15 | 156 | 1.6 | 3.2 | 0.00 | 0.00 | 0.00 | 68 | 1016.8 |
| 20260506084420 | 15 | 155 | 0.0 | 0.0 | 0.00 | 0.00 | 0.00 | 69 | 1017.2 |
| 20260506083915 | 15 | 155 | 0.0 | 0.0 | 0.00 | 0.00 | 0.00 | 69 | 1016.8 |
| 20260506083413 | 15 | 155 | 0.0 | 0.0 | 0.00 | 0.00 | 0.00 | 68 | 1016.8 |
| 20260506082910 | 15 | 154 | 0.0 | 0.0 | 0.00 | 0.00 | 0.00 | 68 | 1017.2 |
| 20260506082407 | 15 | 154 | 0.0 | 0.0 | 0.00 | 0.00 | 0.00 | 67 | 1017.2 |
| 20260506081902 | 15 | 155 | 0.0 | 0.0 | 0.00 | 0.00 | 0.00 | 66 | 1017.2 |
| 20260506081401 | 15 | 155 | 0.0 | 0.0 | 0.00 | 0.00 | 0.00 | 65 | 1016.8 |
| 20260506080858 | 15 | 154 | 0.0 | 0.0 | 0.00 | 0.00 | 0.00 | 64 | 1017.2 |
| 20260506080355 | 15 | 154 | 0.0 | 0.0 | 0.00 | 0.00 | 0.00 | 65 | 1017.2 |
| 20260506073339 | 15 | 154 | 0.0 | 0.0 | 0.00 | 0.00 | 0.00 | 65 | 1017.2 |
| 20260506072835 | 15 | 154 | 0.0 | 0.0 | 0.00 | 0.00 | 0.00 | 65 | 1017.2 |
| 20260506072333 | 15 | 154 | 0.0 | 0.0 | 0.00 | 0.00 | 0.00 | 64 | 1017.2 |
| 20260506071831 | 16 | 154 | 0.0 | 0.0 | 0.00 | 0.00 | 0.00 | 64 | 1017.2 |
| 20260506071329 | 16 | 154 | 0.0 | 0.0 | 0.00 | 0.00 | 0.00 | 62 | 1016.8 |
| 20260506070825 | 16 | 154 | 0.0 | 0.0 | 0.00 | 0.00 | 0.00 | 61 | 1017.2 |
| 20260506070322 | 16 | 155 | 0.0 | 0.0 | 0.00 | 0.00 | 0.00 | 61 | 1017.2 |
| 20260506062254 | 17 | 202 | 4.8 | 4.8 | 0.00 | 0.41 | 0.41 | 58 | 1016.8 |
| 20260506061750 | 17 | 71 | 4.8 | 4.8 | 0.00 | 0.41 | 0.41 | 57 | 1016.8 |
| 20260506061247 | 17 | 60 | 3.2 | 3.2 | 0.00 | 0.41 | 0.41 | 57 | 1016.8 |
| 20260506060746 | 17 | 79 | 3.2 | 3.2 | 0.00 | 0.41 | 0.41 | 57 | 1016.8 |
| 20260506060243 | 17 | 315 | 6.4 | 8.0 | 0.00 | 0.41 | 0.41 | 57 | 1016.8 |
| 20260506051214 | 18 | 331 | 6.4 | 9.7 | 0.00 | 0.41 | 0.41 | 55 | 1016.5 |
| 20260506050713 | 18 | 336 | 9.7 | 11.3 | 0.00 | 0.41 | 0.41 | 54 | 1016.5 |
| 20260506050210 | 18 | 91 | 1.6 | 3.2 | 0.00 | 0.41 | 0.41 | 54 | 1016.5 |
| 20260506044700 | 18 | 297 | 8.0 | 11.3 | 0.00 | 0.41 | 0.41 | 52 | 1016.1 |
| 20260506044157 | 18 | 311 | 8.0 | 9.7 | 0.00 | 0.41 | 0.41 | 53 | 1016.1 |
| 20260506043654 | 18 | 107 | 3.2 | 4.8 | 0.00 | 0.41 | 0.41 | 52 | 1016.1 |
| 20260506043152 | 18 | 31 | 9.7 | 11.3 | 0.00 | 0.41 | 0.41 | 52 | 1016.1 |
| 20260506042651 | 18 | 89 | 3.2 | 3.2 | 0.00 | 0.41 | 0.41 | 53 | 1016.1 |
| 20260506042149 | 18 | 174 | 4.8 | 4.8 | 0.00 | 0.41 | 0.41 | 52 | 1016.1 |
| 20260506041647 | 18 | 192 | 4.8 | 8.0 | 0.00 | 0.41 | 0.41 | 52 | 1015.8 |
| 20260506041143 | 18 | 195 | 8.0 | 11.3 | 0.00 | 0.41 | 0.41 | 52 | 1015.4 |
| 20260506040641 | 18 | 202 | 9.7 | 11.3 | 0.00 | 0.41 | 0.41 | 51 | 1015.8 |
| 20260506040138 | 19 | 234 | 6.4 | 11.3 | 0.00 | 0.41 | 0.41 | 51 | 1015.8 |
| 20260506035635 | 19 | 253 | 9.7 | 11.3 | 0.00 | 0.41 | 0.41 | 50 | 1015.4 |
| 20260506035131 | 19 | 249 | 9.7 | 12.9 | 0.00 | 0.41 | 0.41 | 50 | 1015.4 |
| 20260506034629 | 19 | 270 | 8.0 | 9.7 | 0.00 | 0.41 | 0.41 | 50 | 1015.4 |
| 20260506034125 | 19 | 283 | 9.7 | 12.9 | 0.00 | 0.41 | 0.41 | 49 | 1015.4 |
| 20260506033623 | 19 | 182 | 8.0 | 9.7 | 0.00 | 0.41 | 0.41 | 46 | 1015.4 |
| 20260506033119 | 20 | 176 | 4.8 | 4.8 | 0.00 | 0.41 | 0.41 | 43 | 1015.4 |
| 20260506032617 | 20 | 154 | 3.2 | 3.2 | 0.00 | 0.41 | 0.41 | 42 | 1015.0 |
| 20260506032114 | 20 | 197 | 6.4 | 8.0 | 0.00 | 0.41 | 0.41 | 41 | 1014.7 |
| 20260506031611 | 20 | 149 | 3.2 | 3.2 | 0.00 | 0.41 | 0.41 | 41 | 1015.0 |
| 20260506031108 | 20 | 159 | 4.8 | 4.8 | 0.00 | 0.41 | 0.41 | 41 | 1014.7 |
| 20260506030606 | 20 | 218 | 6.4 | 8.0 | 0.00 | 0.41 | 0.41 | 40 | 1014.7 |
| 20260506030103 | 20 | 154 | 4.8 | 4.8 | 0.00 | 0.41 | 0.41 | 39 | 1014.7 |
| 20260506025600 | 20 | 166 | 3.2 | 3.2 | 0.00 | 0.41 | 0.41 | 39 | 1014.3 |
| 20260506025056 | 20 | 262 | 4.8 | 8.0 | 0.00 | 0.41 | 0.41 | 38 | 1014.3 |
| 20260506024553 | 20 | 292 | 6.4 | 8.0 | 0.00 | 0.41 | 0.41 | 38 | 1014.3 |
| 20260506024050 | 20 | 246 | 8.0 | 11.3 | 0.00 | 0.41 | 0.41 | 38 | 1014.3 |
| 20260506023545 | 20 | 174 | 3.2 | 3.2 | 0.00 | 0.41 | 0.41 | 38 | 1014.3 |
| 20260506023043 | 20 | 295 | 9.7 | 12.9 | 0.00 | 0.41 | 0.41 | 38 | 1014.3 |
| 20260506022540 | 21 | 309 | 11.3 | 14.5 | 0.00 | 0.41 | 0.41 | 38 | 1013.9 |
| 20260506022038 | 21 | 194 | 4.8 | 8.0 | 0.00 | 0.41 | 0.41 | 38 | 1013.9 |
| 20260506021535 | 21 | 276 | 6.4 | 9.7 | 0.00 | 0.41 | 0.41 | 38 | 1013.9 |
| 20260506021033 | 20 | 195 | 6.4 | 8.0 | 0.00 | 0.41 | 0.41 | 38 | 1013.9 |
| 20260506020530 | 21 | 312 | 9.7 | 12.9 | 0.00 | 0.41 | 0.41 | 39 | 1013.9 |
| 20260506020027 | 21 | 262 | 9.7 | 12.9 | 0.00 | 0.41 | 0.41 | 39 | 1013.6 |
| 20260506015525 | 21 | 302 | 14.5 | 17.7 | 0.00 | 0.41 | 0.41 | 39 | 1013.6 |
| 20260506015021 | 21 | 322 | 8.0 | 9.7 | 0.00 | 0.41 | 0.41 | 39 | 1013.2 |
| 20260506014519 | 21 | 269 | 11.3 | 12.9 | 0.00 | 0.41 | 0.41 | 39 | 1013.2 |
| 20260506014015 | 21 | 289 | 8.0 | 9.7 | 0.00 | 0.41 | 0.41 | 39 | 1013.2 |
| 20260506013513 | 21 | 301 | 11.3 | 16.1 | 0.00 | 0.41 | 0.41 | 39 | 1013.2 |
| 20260506013009 | 21 | 317 | 17.7 | 20.9 | 0.00 | 0.41 | 0.41 | 39 | 1013.2 |
| 20260506012505 | 21 | 281 | 11.3 | 16.1 | 0.00 | 0.41 | 0.41 | 39 | 1013.2 |
| 20260506012002 | 21 | 254 | 9.7 | 14.5 | 0.00 | 0.41 | 0.41 | 39 | 1013.6 |
| 20260506011500 | 22 | 302 | 14.5 | 17.7 | 0.00 | 0.41 | 0.41 | 39 | 1013.2 |
| 20260506010956 | 22 | 291 | 17.7 | 22.5 | 0.00 | 0.41 | 0.41 | 38 | 1013.2 |
| 20260506010455 | 22 | 309 | 8.0 | 11.3 | 0.00 | 0.41 | 0.41 | 37 | 1012.9 |
| 20260506005951 | 22 | 218 | 11.3 | 16.1 | 0.00 | 0.41 | 0.41 | 35 | 1012.9 |
| 20260506005449 | 23 | 276 | 12.9 | 17.7 | 0.00 | 0.41 | 0.41 | 34 | 1012.9 |
| 20260506004944 | 22 | 281 | 16.1 | 20.9 | 0.00 | 0.41 | 0.41 | 33 | 1012.9 |
| 20260506004442 | 23 | 260 | 11.3 | 16.1 | 0.00 | 0.41 | 0.41 | 33 | 1012.9 |
| 20260506003938 | 23 | 269 | 19.3 | 24.1 | 0.00 | 0.41 | 0.41 | 33 | 1012.9 |
| 20260506003435 | 23 | 308 | 12.9 | 17.7 | 0.00 | 0.41 | 0.41 | 33 | 1012.9 |
| 20260506002931 | 23 | 329 | 14.5 | 16.1 | 0.00 | 0.41 | 0.41 | 34 | 1012.9 |
| 20260506002427 | 23 | 216 | 12.9 | 17.7 | 0.00 | 0.41 | 0.41 | 34 | 1012.9 |
| 20260506001922 | 23 | 259 | 17.7 | 20.9 | 0.00 | 0.41 | 0.41 | 34 | 1012.9 |
| 20260506001420 | 23 | 180 | 8.0 | 9.7 | 0.00 | 0.41 | 0.41 | 34 | 1012.9 |
| 20260506000917 | 23 | 197 | 8.0 | 11.3 | 0.00 | 0.41 | 0.41 | 34 | 1012.4 |
| 20260506000416 | 23 | 191 | 9.7 | 11.3 | 0.00 | 0.41 | 0.41 | 35 | 1012.4 |
| 20260505235911 | 24 | 253 | 16.1 | 22.5 | 0.00 | 0.41 | 0.41 | 34 | 1012.9 |
| 20260505235409 | 24 | 302 | 12.9 | 14.5 | 0.00 | 0.41 | 0.41 | 34 | 1012.4 |
| 20260505234906 | 24 | 174 | 4.8 | 4.8 | 0.00 | 0.41 | 0.41 | 34 | 1012.4 |
| 20260505234403 | 23 | 302 | 11.3 | 12.9 | 0.00 | 0.41 | 0.41 | 35 | 1012.4 |
| 20260505233900 | 23 | 237 | 9.7 | 12.9 | 0.00 | 0.41 | 0.41 | 35 | 1012.1 |
| 20260505233358 | 23 | 256 | 12.9 | 16.1 | 0.00 | 0.41 | 0.41 | 35 | 1012.1 |
| 20260505232855 | 23 | 233 | 9.7 | 14.5 | 0.00 | 0.41 | 0.41 | 35 | 1012.4 |
| 20260505232353 | 23 | 262 | 14.5 | 17.7 | 0.00 | 0.41 | 0.41 | 35 | 1012.4 |
| 20260505231849 | 24 | 266 | 11.3 | 16.1 | 0.00 | 0.41 | 0.41 | 35 | 1012.4 |
| 20260505231347 | 23 | 308 | 8.0 | 12.9 | 0.00 | 0.41 | 0.41 | 35 | 1012.1 |
| 20260505230845 | 23 | 233 | 11.3 | 12.9 | 0.00 | 0.41 | 0.41 | 35 | 1012.4 |
| 20260505230342 | 23 | 260 | 14.5 | 20.9 | 0.00 | 0.41 | 0.41 | 35 | 1012.4 |
| 20260505225839 | 24 | 221 | 9.7 | 12.9 | 0.00 | 0.41 | 0.41 | 35 | 1012.4 |
| 20260505225337 | 23 | 212 | 9.7 | 14.5 | 0.00 | 0.41 | 0.41 | 34 | 1012.4 |
| 20260505224836 | 24 | 242 | 14.5 | 17.7 | 0.00 | 0.41 | 0.41 | 34 | 1012.4 |
| 20260505224335 | 23 | 249 | 12.9 | 14.5 | 0.00 | 0.41 | 0.41 | 34 | 1012.9 |
| 20260505223831 | 24 | 212 | 14.5 | 16.1 | 0.00 | 0.41 | 0.41 | 33 | 1012.9 |
| 20260505223329 | 24 | 271 | 17.7 | 22.5 | 0.00 | 0.41 | 0.41 | 34 | 1012.9 |
| 20260505222824 | 23 | 223 | 11.3 | 16.1 | 0.00 | 0.41 | 0.41 | 34 | 1012.9 |
| 20260505222320 | 23 | 200 | 8.0 | 12.9 | 0.00 | 0.41 | 0.41 | 36 | 1012.9 |
| 20260505221818 | 23 | 216 | 12.9 | 17.7 | 0.00 | 0.41 | 0.41 | 36 | 1012.9 |
| 20260505221314 | 23 | 211 | 16.1 | 20.9 | 0.00 | 0.41 | 0.41 | 35 | 1012.9 |
| 20260505220812 | 23 | 242 | 14.5 | 20.9 | 0.00 | 0.41 | 0.41 | 36 | 1012.9 |
| 20260505220308 | 22 | 263 | 17.7 | 24.1 | 0.00 | 0.41 | 0.41 | 37 | 1012.9 |
| 20260505215807 | 23 | 234 | 19.3 | 22.5 | 0.00 | 0.41 | 0.41 | 37 | 1013.2 |
| 20260505215305 | 23 | 280 | 12.9 | 16.1 | 0.00 | 0.41 | 0.41 | 37 | 1012.9 |
| 20260505214802 | 23 | 314 | 8.0 | 9.7 | 0.00 | 0.41 | 0.41 | 39 | 1013.2 |
| 20260505214259 | 23 | 183 | 12.9 | 17.7 | 0.00 | 0.41 | 0.41 | 38 | 1013.2 |
| 20260505213756 | 23 | 264 | 14.5 | 20.9 | 0.00 | 0.41 | 0.41 | 37 | 1013.2 |
| 20260505213254 | 23 | 261 | 20.9 | 29.0 | 0.00 | 0.41 | 0.41 | 38 | 1013.2 |
| 20260505212749 | 23 | 279 | 19.3 | 25.7 | 0.00 | 0.41 | 0.41 | 37 | 1013.2 |
| 20260505212247 | 23 | 244 | 14.5 | 20.9 | 0.00 | 0.41 | 0.41 | 37 | 1013.6 |
| 20260505211743 | 23 | 242 | 12.9 | 16.1 | 0.00 | 0.41 | 0.41 | 35 | 1013.6 |
| 20260505211241 | 23 | 225 | 19.3 | 20.9 | 0.00 | 0.41 | 0.41 | 36 | 1013.2 |
| 20260505210737 | 23 | 266 | 14.5 | 17.7 | 0.00 | 0.41 | 0.41 | 38 | 1013.6 |
| 20260505210234 | 23 | 238 | 12.9 | 16.1 | 0.00 | 0.41 | 0.41 | 38 | 1013.6 |
| 20260505205731 | 23 | 227 | 16.1 | 24.1 | 0.00 | 0.41 | 0.41 | 40 | 1013.6 |
| 20260505205230 | 23 | 246 | 12.9 | 16.1 | 0.00 | 0.41 | 0.41 | 40 | 1013.2 |
| 20260505204726 | 23 | 259 | 27.4 | 35.4 | 0.00 | 0.41 | 0.41 | 39 | 1013.9 |
| 20260505204224 | 23 | 265 | 22.5 | 27.4 | 0.00 | 0.41 | 0.41 | 40 | 1013.6 |
| 20260505203721 | 23 | 261 | 24.1 | 33.8 | 0.00 | 0.41 | 0.41 | 42 | 1013.6 |
| 20260505203218 | 23 | 225 | 11.3 | 16.1 | 0.00 | 0.41 | 0.41 | 41 | 1013.6 |
| 20260505202713 | 23 | 294 | 16.1 | 22.5 | 0.00 | 0.41 | 0.41 | 41 | 1013.6 |
| 20260505202210 | 23 | 253 | 17.7 | 24.1 | 0.00 | 0.41 | 0.41 | 42 | 1013.6 |
| 20260505201706 | 23 | 261 | 19.3 | 25.7 | 0.00 | 0.41 | 0.41 | 42 | 1013.6 |
| 20260505201204 | 23 | 238 | 14.5 | 20.9 | 0.00 | 0.41 | 0.41 | 41 | 1013.9 |
| 20260505200702 | 23 | 257 | 14.5 | 20.9 | 0.00 | 0.41 | 0.41 | 41 | 1013.6 |
| 20260505200159 | 23 | 222 | 12.9 | 20.9 | 0.00 | 0.41 | 0.41 | 43 | 1013.6 |
| 20260505195654 | 22 | 310 | 17.7 | 22.5 | 0.00 | 0.41 | 0.41 | 44 | 1013.9 |
| 20260505195152 | 23 | 255 | 17.7 | 24.1 | 0.00 | 0.41 | 0.41 | 45 | 1013.9 |
| 20260505194649 | 23 | 248 | 22.5 | 25.7 | 0.00 | 0.41 | 0.41 | 45 | 1013.9 |
| 20260505194145 | 23 | 301 | 11.3 | 12.9 | 0.00 | 0.41 | 0.41 | 46 | 1013.9 |
| 20260505193642 | 23 | 260 | 11.3 | 14.5 | 0.00 | 0.41 | 0.41 | 48 | 1013.9 |
| 20260505193139 | 22 | 297 | 12.9 | 16.1 | 0.00 | 0.41 | 0.41 | 48 | 1013.9 |
| 20260505192638 | 22 | 200 | 8.0 | 12.9 | 0.00 | 0.41 | 0.41 | 51 | 1013.9 |
| 20260505192134 | 22 | 248 | 17.7 | 20.9 | 0.00 | 0.41 | 0.41 | 51 | 1013.9 |
| 20260505191633 | 22 | 147 | 3.2 | 4.8 | 0.00 | 0.41 | 0.41 | 52 | 1014.3 |
| 20260505191131 | 22 | 217 | 11.3 | 14.5 | 0.00 | 0.41 | 0.41 | 54 | 1014.3 |
| 20260505190626 | 21 | 180 | 4.8 | 4.8 | 0.00 | 0.41 | 0.41 | 57 | 1014.3 |
| 20260505190121 | 22 | 149 | 1.6 | 3.2 | 0.00 | 0.41 | 0.41 | 55 | 1014.3 |
| 20260505185618 | 22 | 121 | 4.8 | 4.8 | 0.00 | 0.41 | 0.41 | 54 | 1014.3 |
| 20260505185114 | 21 | 142 | 3.2 | 3.2 | 0.00 | 0.41 | 0.41 | 55 | 1014.7 |
| 20260505184611 | 21 | 95 | 1.6 | 4.8 | 0.00 | 0.41 | 0.41 | 56 | 1014.7 |
| 20260505184108 | 22 | 113 | 4.8 | 4.8 | 0.00 | 0.41 | 0.41 | 55 | 1014.7 |
| 20260505183605 | 21 | 141 | 0.0 | 0.0 | 0.00 | 0.41 | 0.41 | 57 | 1014.7 |
| 20260505183103 | 21 | 151 | 1.6 | 1.6 | 0.00 | 0.41 | 0.41 | 58 | 1015.0 |
| 20260505182558 | 21 | 161 | 4.8 | 4.8 | 0.00 | 0.41 | 0.41 | 55 | 1014.7 |
| 20260505182055 | 21 | 165 | 6.4 | 8.0 | 0.00 | 0.41 | 0.41 | 58 | 1015.0 |
| 20260505181552 | 22 | 336 | 6.4 | 9.7 | 0.00 | 0.41 | 0.41 | 55 | 1015.0 |
| 20260505181049 | 21 | 146 | 1.6 | 1.6 | 0.00 | 0.41 | 0.41 | 59 | 1015.0 |
| 20260505180545 | 20 | 139 | 1.6 | 1.6 | 0.00 | 0.41 | 0.41 | 60 | 1015.0 |
| 20260505180044 | 20 | 215 | 6.4 | 9.7 | 0.00 | 0.41 | 0.41 | 62 | 1015.4 |
| 20260505175543 | 19 | 148 | 0.0 | 0.0 | 0.00 | 0.41 | 0.41 | 62 | 1015.0 |
| 20260505175041 | 20 | 230 | 6.4 | 9.7 | 0.00 | 0.41 | 0.41 | 63 | 1015.4 |
| 20260505174538 | 20 | 195 | 4.8 | 8.0 | 0.00 | 0.41 | 0.41 | 62 | 1015.4 |
| 20260505174033 | 20 | 160 | 3.2 | 3.2 | 0.00 | 0.41 | 0.41 | 62 | 1015.4 |
| 20260505173530 | 21 | 239 | 8.0 | 11.3 | 0.00 | 0.41 | 0.41 | 61 | 1015.4 |
| 20260505173027 | 21 | 136 | 0.0 | 0.0 | 0.00 | 0.41 | 0.41 | 58 | 1015.4 |
| 20260505172525 | 20 | 134 | 1.6 | 1.6 | 0.00 | 0.41 | 0.41 | 63 | 1015.4 |
| 20260505172021 | 20 | 120 | 0.0 | 0.0 | 0.00 | 0.41 | 0.41 | 62 | 1015.4 |
| 20260505171516 | 20 | 127 | 0.0 | 1.6 | 0.00 | 0.41 | 0.41 | 63 | 1015.4 |
| 20260505171013 | 21 | 99 | 6.4 | 8.0 | 0.00 | 0.41 | 0.41 | 62 | 1015.4 |
| 20260505170505 | 20 | 131 | 0.0 | 0.0 | 0.00 | 0.41 | 0.41 | 62 | 1015.4 |
| 20260505170001 | 20 | 153 | 1.6 | 1.6 | 0.00 | 0.41 | 0.41 | 65 | 1015.0 |
| 20260505165456 | 20 | 137 | 4.8 | 4.8 | 0.00 | 0.41 | 0.41 | 64 | 1015.4 |
| 20260505164952 | 20 | 142 | 0.0 | 1.6 | 0.00 | 0.41 | 0.41 | 66 | 1015.4 |
| 20260505164449 | 19 | 128 | 0.0 | 1.6 | 0.00 | 0.41 | 0.41 | 69 | 1015.4 |
| 20260505163946 | 18 | 124 | 3.2 | 3.2 | 0.00 | 0.41 | 0.41 | 68 | 1015.4 |
| 20260505163444 | 18 | 126 | 1.6 | 1.6 | 0.00 | 0.41 | 0.41 | 71 | 1015.4 |
| 20260505162943 | 18 | 124 | 0.0 | 0.0 | 0.00 | 0.41 | 0.41 | 72 | 1015.4 |
| 20260505162439 | 17 | 163 | 1.6 | 3.2 | 0.00 | 0.41 | 0.41 | 74 | 1015.4 |
| 20260505161936 | 17 | 152 | 0.0 | 0.0 | 0.00 | 0.41 | 0.41 | 74 | 1015.4 |
| 20260505161432 | 18 | 197 | 4.8 | 8.0 | 0.00 | 0.41 | 0.41 | 74 | 1015.4 |
| 20260505160930 | 17 | 146 | 1.6 | 1.6 | 0.00 | 0.41 | 0.41 | 76 | 1015.4 |
| 20260505160428 | 17 | 153 | 3.2 | 3.2 | 0.00 | 0.41 | 0.41 | 75 | 1015.8 |
| 20260505152858 | 17 | 136 | 0.0 | 0.0 | 0.00 | 0.41 | 0.41 | 73 | 1015.0 |
| 20260505152356 | 17 | 149 | 0.0 | 0.0 | 0.00 | 0.41 | 0.41 | 76 | 1015.0 |
| 20260505151855 | 17 | 153 | 1.6 | 1.6 | 0.00 | 0.41 | 0.41 | 78 | 1015.4 |
| 20260505151352 | 17 | 181 | 4.8 | 8.0 | 0.00 | 0.41 | 0.41 | 78 | 1015.4 |
| 20260505150849 | 16 | 142 | 0.0 | 0.0 | 0.00 | 0.41 | 0.41 | 78 | 1015.4 |
| 20260505150347 | 16 | 132 | 0.0 | 0.0 | 0.00 | 0.41 | 0.41 | 79 | 1015.4 |
| 20260505140317 | 15 | 133 | 0.0 | 0.0 | 0.00 | 0.41 | 0.41 | 93 | 1015.0 |
| 20260505130240 | 14 | 130 | 0.0 | 0.0 | 0.00 | 0.41 | 0.41 | 95 | 1014.3 |
| 20260505124731 | 13 | 127 | 0.0 | 0.0 | 0.03 | 0.41 | 0.41 | 95 | 1013.9 |
| 20260505124228 | 14 | 133 | 0.0 | 0.0 | 0.03 | 0.41 | 0.41 | 95 | 1013.9 |
| 20260505123723 | 14 | 132 | 0.0 | 0.0 | 0.03 | 0.41 | 0.41 | 95 | 1013.9 |
| 20260505123220 | 14 | 140 | 0.0 | 0.0 | 0.03 | 0.41 | 0.41 | 95 | 1014.3 |
| 20260505122716 | 14 | 140 | 0.0 | 0.0 | 0.00 | 0.38 | 0.38 | 95 | 1013.9 |
| 20260505122214 | 14 | 135 | 0.0 | 0.0 | 0.00 | 0.38 | 0.38 | 95 | 1013.9 |
| 20260505121710 | 14 | 132 | 0.0 | 0.0 | 0.00 | 0.38 | 0.38 | 95 | 1013.9 |
| 20260505121207 | 14 | 132 | 0.0 | 0.0 | 0.00 | 0.38 | 0.38 | 95 | 1014.3 |
| 20260505120703 | 14 | 135 | 0.0 | 0.0 | 0.00 | 0.38 | 0.38 | 95 | 1013.6 |
| 20260505120159 | 14 | 138 | 0.0 | 0.0 | 0.00 | 0.38 | 0.38 | 95 | 1013.9 |
| 20260505115652 | 14 | 132 | 0.0 | 0.0 | 0.03 | 0.38 | 0.38 | 95 | 1013.9 |
| 20260505115151 | 14 | 132 | 0.0 | 0.0 | 0.03 | 0.38 | 0.38 | 95 | 1013.9 |
| 20260505114648 | 14 | 130 | 0.0 | 0.0 | 0.03 | 0.38 | 0.38 | 94 | 1013.9 |
| 20260505114144 | 14 | 125 | 0.0 | 0.0 | 0.03 | 0.38 | 0.38 | 94 | 1013.6 |
| 20260505113640 | 14 | 138 | 0.0 | 0.0 | 0.03 | 0.38 | 0.38 | 94 | 1013.6 |
| 20260505113137 | 14 | 137 | 0.0 | 0.0 | 0.03 | 0.38 | 0.38 | 94 | 1013.6 |
| 20260505112633 | 14 | 149 | 0.0 | 1.6 | 0.03 | 0.38 | 0.38 | 94 | 1013.9 |
| 20260505112132 | 14 | 141 | 0.0 | 0.0 | 0.00 | 0.36 | 0.36 | 94 | 1014.3 |
| 20260505111631 | 14 | 138 | 0.0 | 0.0 | 0.00 | 0.36 | 0.36 | 94 | 1013.9 |
| 20260505111127 | 14 | 137 | 0.0 | 0.0 | 0.00 | 0.36 | 0.36 | 95 | 1014.3 |
| 20260505110624 | 14 | 134 | 0.0 | 0.0 | 0.00 | 0.36 | 0.36 | 95 | 1014.3 |
| 20260505110121 | 14 | 134 | 0.0 | 0.0 | 0.00 | 0.36 | 0.36 | 95 | 1014.3 |